Flag for U.S.A. Weather past 2 weeks in Fort Myers, Florida, U.S.A.

Now
63 °F

Clear.


Feels Like: 63 °F
Forecast: 51 / 72 °F
Wind: 6 mph from Northwest

Location: Page Field

Current Time: Jan 30, 2015 at 8:45:29 PM

Latest Report: Jan 30, 2015 at 7:53 PM


Visibility: 10 mi

Pressure: 30.16 "Hg

Humidity: 84%

Dew point: 58 °F

Location of Fort MyersLocation

Historic Weather in Fort Myers — Graph

°F

Fort Myers temperature yesterday

Maximum temperature yesterday: 73 °F (at 1:53 PM)
Minimum temperature yesterday: 46 °F (at 6:53 AM)
Average temperature yesterday: 59 °F

Past Weeks' High & Low Weather Summary

 TemperatureHumidityPressure
High82 °F (Jan 21, 4:53 PM)97% (Jan 16, 1:53 AM)30.30 "Hg (Jan 16, 1:53 AM)
Low46 °F (Jan 29, 6:53 AM)27% (Jan 28, 4:53 PM)29.82 "Hg (Jan 24, 3:53 AM)
Average63 °F72%30.08 "Hg
* Reported Jan 15 7:53 PM — Jan 30 7:53 PM, Fort Myers, Weather by CustomWeather, © 2014

Note: Actual official high and low records may vary slightly from our data, if they occured in-between our weather recording intervals... More about our weather records

Advertising

Fort Myers weather history for previous 24 hours

 ConditionsComfort  
Time TempWeatherWind HumidityBarometerVisibility
7:53 PM
Jan 30
63 °FClear.6 mph84%30.16 "Hg10 mi
6:53 PM65 °FClear.7 mph76%30.16 "Hg10 mi
5:53 PM67 °FSunny.8 mph68%30.15 "Hg10 mi
4:53 PM70 °FSunny.13 mph61%30.15 "Hg10 mi
3:53 PM72 °FSunny.9 mph55%30.14 "Hg10 mi
2:53 PM72 °FSunny.9 mph55%30.14 "Hg10 mi
1:53 PM72 °FPassing clouds.12 mph53%30.16 "Hg10 mi
12:53 PM72 °FSunny.15 mph52%30.18 "Hg10 mi
11:53 AM70 °FSunny.6 mph47%30.22 "Hg10 mi
10:53 AM69 °FSunny.5 mph49%30.25 "Hg10 mi
9:53 AM67 °FSunny.5 mph55%30.24 "Hg10 mi
8:53 AM62 °FSunny.7 mph62%30.24 "Hg10 mi
7:53 AM51 °FSunny.No wind92%30.23 "Hg10 mi
6:53 AM49 °FClear.No wind93%30.21 "Hg9 mi
5:53 AM49 °FClear.No wind93%30.19 "Hg10 mi
4:53 AM50 °FClear.No wind89%30.19 "Hg10 mi
3:53 AM52 °FClear.No wind89%30.19 "Hg10 mi
2:53 AM53 °FClear.No wind89%30.20 "Hg10 mi
1:53 AM53 °FClear.No wind86%30.22 "Hg10 mi
12:53 AM54 °FClear.No wind83%30.22 "Hg10 mi
11:53 PM
Jan 29
55 °FClear.3 mph83%30.23 "Hg10 mi
10:53 PM57 °FClear.No wind78%30.24 "Hg10 mi
9:53 PM60 °FPassing clouds.No wind69%30.24 "Hg10 mi
8:53 PM63 °FPassing clouds.3 mph60%30.24 "Hg10 mi
Weather by CustomWeather, © 2014

See weather overviewHow to use our weather pages